This is the latest recevied weather packets stored in our database for station/object KB1RMA-13. If no packets are shown the sender has not sent any weather packets the latest 10 day(s).
| Time | Temp. | Humidity | Pressure | Rain* | Wind** | Luminosity | Snow |
|---|---|---|---|---|---|---|---|
| 1777824551 | 8.33° C | 81% | 1006.1 hPa | 0 mm | - | 162 W/m² | - |
| 1777824247 | 7.78° C | 83% | 1006.4 hPa | 0 mm | - | 184 W/m² | - |
| 1777823943 | 8.33° C | 81% | 1006.1 hPa | 0 mm | - | 196 W/m² | - |
| 1777823640 | 8.33° C | 81% | 1006 hPa | 0 mm | - | 139 W/m² | - |
| 1777823337 | 8.33° C | 81% | 1006 hPa | 0 mm | - | 111 W/m² | - |
| 1777823035 | 8.89° C | 80% | 1006.2 hPa | 0 mm | - | 157 W/m² | - |
| 1777822733 | 8.33° C | 78% | 1006 hPa | 0 mm | - | 126 W/m² | - |
| 1777822431 | 8.89° C | 78% | 1006 hPa | 0 mm | - | 140 W/m² | - |
| 1777822128 | 8.89° C | 79% | 1006 hPa | 0 mm | - | 164 W/m² | - |
| 1777821825 | 8.33° C | 79% | 1006 hPa | 0 mm | - | 182 W/m² | - |
| 1777821522 | 8.33° C | 81% | 1005.9 hPa | 0 mm | - | 239 W/m² | - |
| 1777821220 | 7.78° C | 86% | 1006 hPa | 0 mm | - | 164 W/m² | - |
| 1777820917 | 7.78° C | 88% | 1005.9 hPa | 0 mm | - | 141 W/m² | - |
| 1777820613 | 7.78° C | 90% | 1006.1 hPa | 0 mm | - | 100 W/m² | - |
| 1777820310 | 7.78° C | 91% | 1005.9 hPa | 0 mm | - | 134 W/m² | - |
| 1777820008 | 7.78° C | 91% | 1006 hPa | 0 mm | - | 118 W/m² | - |
| 1777819704 | 7.22° C | 91% | 1006 hPa | 0 mm | - | 140 W/m² | - |
| 1777819403 | 7.78° C | 90% | 1005.9 hPa | 0 mm | - | 168 W/m² | - |
| 1777819099 | 7.78° C | 88% | 1006.1 hPa | 0 mm | - | 268 W/m² | - |
| 1777818796 | 7.78° C | 85% | 1006.2 hPa | 0 mm | - | 287 W/m² | - |
| 1777818492 | 8.33° C | 82% | 1006.1 hPa | 0 mm | - | 167 W/m² | - |
| 1777818189 | 8.89° C | 79% | 1005.9 hPa | 0 mm | - | 231 W/m² | - |
| 1777817886 | 8.89° C | 79% | 1005.9 hPa | 0 mm | - | 258 W/m² | - |
| 1777817583 | 8.33° C | 81% | 1006.1 hPa | 0 mm | - | 209 W/m² | - |
| 1777817280 | 8.89° C | 81% | 1006.1 hPa | 0 mm | - | 106 W/m² | - |
* Rain latest hour (hover to see other rain measurements)
** Current wind speed in m/s (hover to see current wind gust speed)